User: anonymous   Login
Location: Jetmore Oil Field
(38.1181°N, 99.9337°W)
Time: 00:31:34
(UTC+00:00)
Language:

STARLINK-2666 - Orbit

View from above orbital plane
View from above orbital plane
View from above satellite
View from above satellite

Ground track
Ground track

The orbit data is extracted from the following two-line orbital elements,

1 48666U 21044AE  21259.83335648  .00043711  00000-0  29383-2 0  9993
2 48666  53.0521 250.7629 0001535  61.6512 281.3886 15.06361000 18337
Epoch (UTC): 16 September 2021 20:00:02
Eccentricity: 0.0001535
inclination: 53.0521°
perigee height: 546 km
apogee height: 548 km
right ascension of ascending node: 250.7629°
argument of perigee: 61.6512°
revolutions per day: 15.06361000
mean anomaly at epoch: 281.3886°
orbit number at epoch: 1833

The dashed part of the orbit path shows where the satellite is in the earth's shadow,  

DLR